DW9558 Weather Reports


Display with metric or nautical units.
time (UTC)temp
F
wind
direction
speed
MPH
gust
MPH
rain 1hr
in
rain 24hr
in
rain mn
in
humidity
%
barometer
mb
20260902194543 75 177 2.0 7.0 0.00 0.00 0.00 55 1023.1
20260902193042 74 177 1.0 6.0 0.00 0.00 0.00 56 1023.3
20260902191548 74 177 1.0 6.0 0.00 0.00 0.00 57 1023.5
20260902190035 73 177 0.0 2.0 0.00 0.00 0.00 59 1023.6
20260902184545 73 177 1.0 6.0 0.00 0.00 0.00 58 1023.6
20260902183030 73 177 0.0 7.0 0.00 0.00 0.00 59 1023.5
20260902181528 73 177 0.0 3.0 0.00 0.00 0.00 59 1023.4
20260902180029 72 177 0.0 6.0 0.00 0.00 0.00 60 1023.4
20260902174520 71 177 0.0 4.0 0.00 0.00 0.00 63 1023.5
20260902173017 69 177 0.0 6.0 0.00 0.00 0.00 64 1023.6
20260902171515 68 177 0.0 5.0 0.00 0.00 0.00 66 1023.4
20260902170011 68 177 0.0 4.0 0.00 0.00 0.00 66 1023.3
20260902164505 67 177 0.0 4.0 0.00 0.00 0.00 68 1023.2
20260902163001 66 177 0.0 4.0 0.00 0.00 0.00 70 1023.1
20260902161601 65 177 0.0 5.0 0.00 0.00 0.00 73 1023.1
20260902160100 64 177 0.0 0.0 0.00 0.00 0.00 75 1023.3
20260902154551 63 177 0.0 3.0 0.00 0.00 0.00 77 1023.3
20260902153050 63 177 0.0 3.0 0.00 0.00 0.00 78 1023.3
20260902151553 62 177 0.0 5.0 0.00 0.00 0.00 80 1023.2
20260902150045 61 178 0.0 4.0 0.00 0.00 0.00 82 1023.0
20260902144543 60 178 0.0 0.0 0.00 0.00 0.00 82 1023.0
20260902143037 60 178 0.0 4.0 0.00 0.00 0.00 83 1022.9
20260902141538 60 178 0.0 3.0 0.00 0.00 0.00 83 1022.6
20260902140037 59 178 0.0 3.0 0.00 0.00 0.00 84 1022.7
20260902134532 59 178 0.0 0.0 0.00 0.00 0.00 84 1022.6
20260902133031 59 178 0.0 0.0 0.00 0.00 0.00 84 1022.4
20260902131530 59 178 0.0 0.0 0.00 0.00 0.00 83 1022.2
20260902130032 59 178 0.0 3.0 0.00 0.00 0.00 83 1022.2
20260902124529 59 178 0.0 4.0 0.00 0.00 0.00 83 1022.2
20260902123030 60 178 0.0 5.0 0.00 0.00 0.00 85 1022.1
20260902121526 60 178 0.0 0.0 0.00 0.00 0.00 85 1022.0
20260902120027 60 178 0.0 0.0 0.00 0.00 0.00 85 1022.1
20260902114528 60 178 0.0 0.0 0.00 0.00 0.00 85 1021.9
20260902113025 60 178 0.0 0.0 0.00 0.00 0.00 86 1021.9
20260902111534 60 178 0.0 0.0 0.00 0.00 0.00 85 1021.9
20260902110023 60 178 0.0 3.0 0.00 0.00 0.00 85 1022.0
20260902104522 60 178 0.0 0.0 0.00 0.00 0.00 84 1022.2
20260902103021 60 178 0.0 2.0 0.00 0.00 0.00 83 1022.2
20260902101522 61 178 0.0 4.0 0.00 0.00 0.00 83 1022.2
20260902100019 61 178 0.0 3.0 0.00 0.00 0.00 82 1022.4
20260902094518 61 178 0.0 3.0 0.00 0.00 0.00 81 1022.4
20260902093017 61 178 0.0 3.0 0.00 0.00 0.00 81 1022.4
20260902091517 61 178 0.0 4.0 0.00 0.00 0.00 81 1022.4
20260902090016 61 178 0.0 4.0 0.00 0.00 0.00 81 1022.2
20260902084515 61 178 0.0 3.0 0.00 0.00 0.00 81 1022.2
20260902083013 61 178 0.0 3.0 0.00 0.00 0.00 81 1022.2
20260902081511 61 178 0.0 2.0 0.00 0.00 0.00 81 1022.2
20260902080010 62 178 0.0 1.0 0.00 0.00 0.00 81 1022.1
20260902074510 62 178 0.0 2.0 0.00 0.00 0.00 81 1022.0
20260902073007 62 178 0.0 5.0 0.00 0.00 0.00 81 1022.1
20260902071509 62 178 0.0 0.0 0.00 0.00 0.00 81 1021.9
20260902070006 62 178 0.0 5.0 0.00 0.00 0.00 81 1021.9
20260902064501 62 178 0.0 7.0 0.00 0.00 0.00 80 1021.7
20260902063002 62 178 1.0 5.0 0.00 0.00 0.00 80 1021.8
20260902061501 62 178 0.0 5.0 0.00 0.00 0.00 79 1021.8
20260902060113 62 178 0.0 7.0 0.00 0.00 0.00 79 1021.9
20260902054600 62 178 1.0 6.0 0.00 0.00 0.00 78 1022.0
20260902053059 63 178 0.0 4.0 0.00 0.00 0.00 76 1022.1
20260902051601 63 178 1.0 6.0 0.00 0.00 0.00 75 1022.0
20260902050104 63 178 2.0 6.0 0.00 0.00 0.00 73 1021.9
20260902044557 64 178 2.0 6.0 0.00 0.00 0.00 71 1021.8
20260902043056 64 178 1.0 8.0 0.00 0.00 0.00 69 1021.7
20260902041557 64 178 0.0 6.0 0.00 0.00 0.00 68 1021.6
20260902040056 65 178 1.0 6.0 0.00 0.00 0.00 67 1021.4
20260902034555 65 178 2.0 8.0 0.00 0.00 0.00 65 1021.3
20260902033055 66 178 1.0 7.0 0.00 0.00 0.00 64 1021.0
20260902031605 67 178 1.0 6.0 0.00 0.00 0.00 63 1020.8
20260902030054 67 178 1.0 8.0 0.00 0.00 0.00 61 1020.7
20260902024558 68 178 2.0 6.0 0.00 0.00 0.00 59 1020.6
20260902023055 69 178 1.0 9.0 0.00 0.00 0.00 57 1020.3
20260902021601 69 176 1.0 7.0 0.00 0.00 0.00 55 1020.3
20260902020107 70 176 1.0 6.0 0.00 0.00 0.00 54 1020.1
20260902014552 70 176 1.0 4.0 0.00 0.00 0.00 52 1020.1
20260902013051 71 176 1.0 6.0 0.00 0.00 0.00 51 1019.9
20260902011551 72 176 2.0 7.0 0.00 0.00 0.00 48 1019.9
20260902010050 73 176 1.0 9.0 0.00 0.00 0.00 47 1019.8
20260902004550 73 175 0.0 11.0 0.00 0.00 0.00 47 1019.7
20260902003049 74 175 1.0 9.0 0.00 0.00 0.00 47 1019.7
20260902001553 75 176 3.0 8.0 0.00 0.00 0.00 45 1019.8
20260902000048 76 175 0.0 7.0 0.00 0.00 0.00 44 1019.8
20260901234551 76 171 2.0 8.0 0.00 0.00 0.00 42 1019.9
20260901233049 76 167 2.0 8.0 0.00 0.00 0.00 43 1019.9
20260901231547 76 165 3.0 8.0 0.00 0.00 0.00 43 1020.0
20260901224543 76 162 0.0 7.0 0.00 0.00 0.00 44 1020.1
20260901223051 76 162 3.0 7.0 0.00 0.00 0.00 43 1020.3
20260901221541 75 162 0.0 10.0 0.00 0.00 0.00 44 1020.5
20260901220058 75 159 3.0 9.0 0.00 0.00 0.00 44 1020.6
20260901214539 75 160 1.0 7.0 0.00 0.00 0.00 44 1020.7
20260901213045 75 161 2.0 9.0 0.00 0.00 0.00 44 1020.8
20260901211537 74 165 1.0 9.0 0.00 0.00 0.00 46 1020.8
20260901210037 74 165 2.0 7.0 0.00 0.00 0.00 47 1020.9
20260901204539 74 164 2.0 8.0 0.00 0.00 0.00 46 1021.1
20260901203036 73 164 0.0 7.0 0.00 0.00 0.00 50 1021.2
20260901201529 72 164 1.0 7.0 0.00 0.00 0.00 51 1021.4
20260901200028 72 164 2.0 6.0 0.00 0.00 0.00 51 1021.4